Find Starlink 33883

NORAD ID: 63781 Int'l Des: 2025-091 Owner: SPXS Country: US Constellation: starlink operational
LEOCIRCULAR

リアルタイム位置

3D地球を読み込み中...

Starlink 33883について

説明を読み込み中...

次回通過

Passes for default location (London). Set your location on the main map for personalized predictions.

高度履歴

Loading altitude history...

軌道要素

1 63781U 25091G 26125.60082804 .00020589 00000-0 75551-3 0 9996
2 63781 42.9968 91.3282 0000501 288.2932 71.7865 15.27584107 57602
Epoch: May 5, 2026 • Age: 13 hours

現在のステータス

高度 482.1 km
速度 7.63 km/s
衛星直下点 16.79°N, 163.11°W
打ち上げ日 May 2, 2025
運用期間 1 years
タイプ internet

技術仕様

分類 Payload
質量 575.00 kg
乾燥質量 530.00 kg
総質量 575.00 kg
長さ 0.30 m
直径 4.10 m
スパン 29.00 m
形状 Box + pan
製造者 SPXS
バスタイプ Starlink V2MO
フェーズステータス In Orbit
所有者/国 SPXS/US

Most Searched